Location: ?
(35.4996°N, 139.3166°E)
Time: 20:06:00
(UTC+00:00)

Cosmos 494 Rocket - Pass Details

Date: 18 April 2024
Orbit: 740 x 768 km, 74.1° (Epoch: 26 May)

Event Time Altitude Azimuth Distance (km) Brightness Sun altitude
Exits shadow 18:03:22 57° 197° (SSW) 880 4.0 -23.4°
Maximum altitude 18:04:28 90° 284° (WNW) 754 3.8 -23.2°
Drops below altitude 10° 18:09:36 10° 17° (NNE) 2,265 7.1 -22.3°
Sets 18:11:57 0° 18° (NNE) 3,189 8.0 -21.9°
